If you wish to contribute or participate in the discussions about articles you are invited to join SKYbrary as a registered user

 Actions

Lavan Airport

From SKYbrary Wiki

OIBV
Airport
ICAO: OIBV – IATA: LVP
Summary
Name Lavan Airport
Region Middle East
Territory "Oi" is not in the list (AG, AN, AY, BG, BI, BK, C, CT, DA, DB, ...) of allowed values for the "ICAO Territory" property. Iran IR.gif
Location Lavan, Hormozgan Province
Serving Lavan Island
Elevation 23.165 m
76 ft23.165 m
Coordinates 26° 48' 39.00" N, 53° 21' 10.99" E
Runways
Designator Length Width Surface ROPS
11/29 2077 m6,814.304 ft
45 m147.638 ft
ASP /


METAR
Observation OIBV 150300Z 02004KT 6000 NSC 29/25 Q1013
Station LAVAN ISLAND
Date/Time 15 October 2019 03:00:00
Wind direction 20°
Wind speed 04 kts
Lowest cloud amount nil significant cloud
Temperature 29°C
Dew point 25°C
Humidity 79%
QNH 1013 hPa
Weather condition n/a

Airport located on Lavan Island in the Persian Gulf.

Climatology

Warm Desert climate (Köppen climate classification BWh).

Maps

Terrain

Loading map...

Airport Layout

Loading map...


Accidents & Serious Incidents at or in vicinity of OIBV

None on SKYbrary